STARLINK-11362, 61535

Orbit data source: Space-Track

STARLINK-11362, 61535 is a payload satellite owned by SpaceX/Seattle (US) in LEO that was launched on Tue, 15 Oct 2024 UTC via an FALCON 9 launch vehicle from the Air Force Western Test Range (AFWTR). Payload-class satellites include a variety of spacecraft equipped with specific instruments for various scientific and technological missions. These include communications satellites like Starlink; space stations such as the ISS; scientific satellites like the Hubble; Earth observation satellites from companies like Planet Labs, Umbra, and HawkEye 360; GPS; miniature CubeSats for education and research; and military/defense satellites.

Loading next visibility...
Identifier
61535, 2024-184D
Orbit
LEO
Country
Flag of USUS
Related business
Manufacturer
SpaceX/Seattle
Mission
Operational Commercial Communications
Bus & Motor
STARLINK V2MD, Unknown motor
Mass
960 kg wet, ~910 kg dry
Launch date (UTC)
2024-10-15 (2 years ago)
Launch vehicle
FALCON 9
Launch site
Air Force Western Test Range (AFWTR)
Object type
Payload
Rocket body
Debris
Shape & HBR
Box + 2 Pan, 18.1 m
Radar Cross Section
36.964 m², Large (>1 m²)

Expand to show TLE details & history
Last TLE update: 21 hours ago

TLE from 21 hours ago
0 STARLINK-11362
1 61535U 24184D   26170.97071893  .00001490  00000-0  17156-4 0  9997
2 61535  53.1595  91.9182 0001306 128.1930 231.9206 15.69713317 96487
Epoch: 2026-06-19T23:17Z
TLE epoch observation values (Epoch: 2026-06-19T23:17:50.115Z)
Latitude
-0°
Longitude
-165.73266°
Altitude
361.175 km
Speed
7.694 km/s
True Right ascension
06h 07m 40s
True Declination
0° 00' 00"
Sunlit
Object was in daylight at epoch
Visualization orbit readout
Latitude
Unknown
Longitude
Unknown
Altitude
Unknown
Speed
Unknown
Apparent Right ascension
Unknown
Apparent Declination
Unknown
Sunlit
N/A
Visualization observer readout
Local Sidereal Time
07:17:29
Azimuth
Unknown
Elevation
Unknown
Doppler factor
Unknown
Orbital elements
Apogee altitude
360.858 km
Perigee altitude
359.098 km
Semi-major axis
6,738.115 km
Eccentricity
0.00013
Inclination
53.1595°
RAAN
91.9182°
Arg. of periapsis
128.193°
True anomaly
231.90882°
Mean anomaly
231.9206°
Eccentric anomaly
231.91471°
Mean motion
3.92406 °/min
Orbital period
91.74 mins
BSTAR
0.000017156
Loading maneuver chart data...
Computing Atmospheric mass density...
Loading historical data...
Loading historical data...
Loading historical data...
Loading historical data...
Loading historical data...
Loading historical data...
Loading historical data...

Documentation

Showing up to 5 results
|